Change the Weather History Date:

Saturday, October 6, 2012

  Actual Average (KBIV) Record (KBIV)
Temperature  
Mean Temperature 47 °F 56 °F  
Max Temperature 50 °F 66 °F 84 °F (2007)
Min Temperature 44 °F 46 °F 28 °F (2003)
Degree Days  
Heating Degree Days 18 10  
Month to date heating degree days 55  
Since 1 July heating degree days 185  
Cooling Degree Days 0 1  
Month to date cooling degree days 6  
Year to date cooling degree days 688  
Moisture  
Dew Point 35 °F    
Average Humidity 61    
Maximum Humidity 84    
Minimum Humidity 52    
Precipitation  
Precipitation 0.00 in 0.09 in 1.15 in (1959)
Month to date precipitation 0.59  
Year to date precipitation 27.70  
Sea Level Pressure  
Sea Level Pressure 30.06 in    
Wind  
Wind Speed 10 mph (NW)    
Max Wind Speed 16 mph    
Max Gust Speed 24 mph    
Visibility 10 miles    
Events Rain    
T = Trace of Precipitation, MM = Missing Value Source: NWS Daily Summary

Daily Weather History Graph

Daily Weather History Graph

Search for Another Location

Airport or City:

Trip Planner

Search our weather history database for the weather conditions in past years. The results will help you decide how hot, cold, wet, or windy it might be!

Date:

Astronomy

Oct. 06, 2012 Rise Set
Actual Time 7:48 AM EDT 7:17 PM EDT
Civil Twilight 7:20 AM EDT 7:45 PM EDT
Nautical Twilight 6:47 AM EDT 8:17 PM EDT
Astronomical Twilight 6:14 AM EDT 8:50 PM EDT
Moon 11:26 PM EDT (10/6) 1:47 PM EDT (10/6)
Length of Visible Light 12h 24m
Length of Day
11h 28m
Waning Gibbous, 65% of the Moon is Illuminated
Oct 6
Waning Gibbous
Oct 8
Last Quarter
Oct 15
New
Oct 21
First Quarter
Oct 29
Full

Hourly Weather History & Observations

Time (EDT) Temp. Windchill Dew Point Humidity Pressure Visibility Wind Dir Wind Speed Gust Speed Precip Events Conditions
12:15 AM 50.9 °F - 34.2 °F 53% 30.00 in 10.0 mi NW 13.8 mph 18.4 mph N/A   Overcast
12:35 AM 50.5 °F - 34.5 °F 54% 30.00 in 10.0 mi WNW 11.5 mph 17.3 mph N/A   Overcast
12:55 AM 50.2 °F - 34.9 °F 56% 30.00 in 10.0 mi NW 8.1 mph 19.6 mph N/A   Mostly Cloudy
1:15 AM 50.2 °F - 33.8 °F 53% 29.99 in 10.0 mi WNW 11.5 mph 19.6 mph N/A   Mostly Cloudy
1:35 AM 50.4 °F - 33.6 °F 53% 29.99 in 10.0 mi NW 9.2 mph - N/A   Mostly Cloudy
1:55 AM 50.2 °F - 33.4 °F 53% 29.99 in 10.0 mi WNW 10.4 mph 19.6 mph N/A   Mostly Cloudy
2:15 AM 50.2 °F - 34.0 °F 54% 30.00 in 10.0 mi WNW 12.7 mph 18.4 mph N/A   Mostly Cloudy
2:55 AM 50.0 °F - 33.1 °F 52% 30.00 in 10.0 mi NW 9.2 mph 20.7 mph N/A   Mostly Cloudy
3:15 AM 49.6 °F - 33.6 °F 54% 29.99 in 10.0 mi WNW 10.4 mph 17.3 mph N/A   Mostly Cloudy
3:35 AM 49.5 °F - 33.1 °F 53% 29.99 in 10.0 mi NW 12.7 mph 20.7 mph N/A   Mostly Cloudy
3:55 AM 49.5 °F - 33.4 °F 54% 29.98 in 10.0 mi WNW 13.8 mph - N/A   Mostly Cloudy
4:15 AM 49.5 °F - 34.0 °F 55% 29.98 in 10.0 mi WNW 12.7 mph 20.7 mph N/A   Mostly Cloudy
4:35 AM 49.3 °F - 33.8 °F 55% 29.99 in 10.0 mi WNW 10.4 mph 17.3 mph N/A   Mostly Cloudy
4:55 AM 49.1 °F - 34.5 °F 57% 29.99 in 10.0 mi WNW 15.0 mph 21.9 mph N/A   Mostly Cloudy
5:35 AM 48.2 °F - 33.4 °F 57% 29.99 in 10.0 mi NW 16.1 mph 20.7 mph N/A   Overcast
5:56 AM 47.5 °F - 32.9 °F 57% 30.00 in 10.0 mi NW 15.0 mph 24.2 mph N/A   Overcast
6:15 AM 47.3 °F - 32.2 °F 56% 30.00 in 10.0 mi NW 13.8 mph 18.4 mph N/A   Overcast
6:35 AM 47.3 °F - 32.0 °F 55% 30.01 in 10.0 mi NW 12.7 mph 17.3 mph N/A   Overcast
6:55 AM 47.3 °F - 32.0 °F 55% 30.02 in 10.0 mi WNW 10.4 mph 16.1 mph N/A   Overcast
7:15 AM 46.9 °F - 32.0 °F 56% 30.02 in 10.0 mi NW 12.7 mph 19.6 mph N/A   Overcast
7:35 AM 46.8 °F - 31.8 °F 56% 30.02 in 10.0 mi WNW 11.5 mph 18.4 mph N/A   Overcast
7:55 AM 46.6 °F - 31.5 °F 56% 30.03 in 10.0 mi WNW 12.7 mph 24.2 mph N/A   Overcast
8:15 AM 46.8 °F - 31.6 °F 56% 30.03 in 10.0 mi WNW 13.8 mph 20.7 mph N/A   Overcast
8:34 AM 46.8 °F - 31.3 °F 55% 30.04 in 10.0 mi WNW 16.1 mph 21.9 mph N/A   Overcast
8:55 AM 46.8 °F - 32.0 °F 57% 30.05 in 10.0 mi West 12.7 mph 19.6 mph N/A   Overcast
9:16 AM 46.8 °F - 32.2 °F 57% 30.05 in 10.0 mi West 11.5 mph 19.6 mph N/A   Overcast
9:35 AM 46.8 °F - 32.2 °F 57% 30.05 in 10.0 mi West 11.5 mph 18.4 mph N/A   Overcast
10:15 AM 46.9 °F - 32.2 °F 57% 30.05 in 10.0 mi WNW 10.4 mph 17.3 mph N/A   Overcast
10:35 AM 46.9 °F - 33.4 °F 59% 30.06 in 10.0 mi WNW 13.8 mph 20.7 mph N/A   Overcast
10:55 AM 46.8 °F - 34.0 °F 61% 30.07 in 10.0 mi NW 10.4 mph 19.6 mph N/A   Overcast
11:15 AM 47.3 °F - 33.1 °F 58% 30.07 in 10.0 mi WNW 8.1 mph 17.3 mph N/A   Overcast
11:35 AM 47.3 °F - 32.9 °F 57% 30.07 in 10.0 mi WNW 11.5 mph 20.7 mph N/A   Overcast
11:55 AM 47.3 °F - 33.8 °F 59% 30.07 in 10.0 mi West 8.1 mph 16.1 mph N/A   Overcast
12:15 PM 47.5 °F - 34.2 °F 60% 30.08 in 10.0 mi WNW 9.2 mph 17.3 mph N/A   Overcast
12:35 PM 47.7 °F - 33.3 °F 57% 30.08 in 10.0 mi WNW 8.1 mph 16.1 mph N/A   Overcast
12:55 PM 48.2 °F - 33.4 °F 57% 30.08 in 10.0 mi WNW 6.9 mph 18.4 mph N/A   Overcast
1:15 PM 48.2 °F - 34.3 °F 59% 30.08 in 10.0 mi WNW 8.1 mph 16.1 mph N/A   Overcast
1:36 PM 48.2 °F - 34.0 °F 58% 30.09 in 10.0 mi NW 9.2 mph - N/A   Overcast
1:55 PM 47.5 °F - 36.1 °F 65% 30.09 in 10.0 mi WNW 8.1 mph - N/A   Drizzle
2:15 PM 47.7 °F - 35.1 °F 62% 30.09 in 10.0 mi WNW 10.4 mph 18.4 mph N/A   Overcast
2:35 PM 48.2 °F - 34.2 °F 58% 30.09 in 10.0 mi WNW 8.1 mph 17.3 mph N/A   Overcast
2:55 PM 48.2 °F - 34.2 °F 58% 30.09 in 10.0 mi WNW 8.1 mph - N/A   Overcast
3:15 PM 48.0 °F - 35.4 °F 62% 30.09 in 10.0 mi WNW 9.2 mph - N/A   Overcast
3:35 PM 47.5 °F - 36.9 °F 67% 30.09 in 10.0 mi NW 8.1 mph - N/A Rain Light Rain
3:55 PM 46.4 °F 44.3 °F 37.0 °F 70% 30.09 in 7.0 mi NW 4.6 mph 19.6 mph N/A Rain Light Rain
4:15 PM 46.6 °F - 36.7 °F 68% 30.08 in 10.0 mi WNW 9.2 mph - N/A   Drizzle
4:35 PM 47.7 °F - 35.6 °F 63% 30.08 in 10.0 mi NW 6.9 mph - N/A   Overcast
4:55 PM 48.2 °F - 34.3 °F 59% 30.09 in 10.0 mi NW 9.2 mph - N/A   Overcast
5:15 PM 48.2 °F - 33.6 °F 57% 30.09 in 10.0 mi NW 6.9 mph - N/A   Overcast
5:35 PM 48.2 °F - 34.2 °F 58% 30.09 in 10.0 mi NW 9.2 mph - N/A   Overcast
5:55 PM 48.4 °F - 33.3 °F 56% 30.10 in 10.0 mi NNW 8.1 mph - N/A   Overcast
6:14 PM 48.4 °F - 33.4 °F 56% 30.10 in 10.0 mi NW 5.8 mph - N/A   Overcast
6:35 PM 48.6 °F - 32.4 °F 54% 30.10 in 10.0 mi NW 4.6 mph - N/A   Overcast
6:55 PM 48.6 °F - 32.9 °F 55% 30.10 in 10.0 mi NNW 8.1 mph - N/A   Overcast
7:15 PM 48.7 °F - 32.7 °F 54% 30.11 in 10.0 mi NW 6.9 mph - N/A   Overcast
7:35 PM 48.6 °F - 33.8 °F 57% 30.11 in 10.0 mi North 4.6 mph - N/A   Light Drizzle
7:55 PM 46.0 °F 43.9 °F 38.7 °F 75% 30.12 in 10.0 mi NNE 4.6 mph - N/A Rain Rain
8:15 PM 46.4 °F 45.2 °F 38.1 °F 73% 30.12 in 10.0 mi NW 3.5 mph - N/A   Unknown
8:35 PM 47.1 °F - 37.9 °F 70% 30.11 in 10.0 mi Calm Calm - N/A   Overcast
8:54 PM 47.1 °F - 37.6 °F 69% 30.12 in 10.0 mi Calm Calm - N/A Rain Light Rain
9:15 PM 47.7 °F - 36.9 °F 66% 30.12 in 10.0 mi North 4.6 mph - N/A   Overcast
9:35 PM 46.9 °F - 37.8 °F 70% 30.12 in 10.0 mi NE 4.6 mph - N/A Rain Light Rain
9:55 PM 45.7 °F 43.4 °F 38.5 °F 76% 30.12 in 10.0 mi ENE 4.6 mph - N/A Rain Light Rain
10:15 PM 45.0 °F - 39.0 °F 80% 30.12 in 10.0 mi Calm Calm - N/A Rain Light Rain
10:35 PM 44.6 °F 43.1 °F 39.4 °F 82% 30.12 in 10.0 mi ESE 3.5 mph - N/A   Overcast
10:55 PM 44.6 °F - 39.0 °F 81% 30.12 in 10.0 mi Calm Calm - N/A   Overcast
11:15 PM 44.6 °F 42.2 °F 39.4 °F 82% 30.12 in 10.0 mi SE 4.6 mph - N/A   Overcast
11:35 PM 44.6 °F - 38.8 °F 80% 30.12 in 10.0 mi Calm Calm - N/A   Overcast
11:55 PM 44.1 °F 42.5 °F 39.6 °F 84% 30.12 in 10.0 mi SE 3.5 mph - N/A   Overcast